📊 Raw Sensor Data

Showing records 36376 to 36400 of 84,895 total

ID Distance (ft) Battery V Battery A Int Temp (°F) Int Humid (%) Ext Temp (°F) Solar V RSSI SNR Time Stamp
48532 15.4 3.93 0 111 44 101 5.10 -69 8 08/07/2025 03:45 PM
48531 15.4 3.93 0 111 43 100 5.20 -68 8 08/07/2025 03:30 PM
48530 15.3 4.12 0 110 42 97 5.20 -69 8 08/07/2025 03:00 PM
48529 15.3 3.93 0 109 42 99 5.20 -70 8 08/07/2025 02:45 PM
48528 15.3 3.93 0 106 42 96 5.20 -69 7 08/07/2025 02:15 PM
48527 15.3 3.93 0 105 42 95 5.20 -70 8 08/07/2025 02:00 PM
48526 15.3 3.93 0 104 41 95 5.20 -70 7 08/07/2025 01:45 PM
48525 15.3 3.93 0 102 41 95 5.10 -71 8 08/07/2025 01:30 PM
48524 15.3 3.93 0 100 42 93 5.10 -69 8 08/07/2025 01:15 PM
48523 15.4 3.93 0 95 43 90 5.20 -69 8 08/07/2025 12:30 PM
48522 15.4 3.93 0 93 43 91 5.10 -70 8 08/07/2025 12:15 PM
48521 15.4 3.95 0 92 43 87 5.10 -70 8 08/07/2025 12:00 PM
48520 15.4 3.93 0 91 43 91 5.10 -71 8 08/07/2025 11:45 AM
48519 15.4 3.93 0 88 43 89 5.10 -71 7 08/07/2025 11:15 AM
48518 15.5 3.93 0 87 43 88 5.10 -70 7 08/07/2025 11:00 AM
48517 15.4 3.95 0 85 43 86 5.10 -70 7 08/07/2025 10:45 AM
48516 15.5 3.93 0 85 43 83 5.10 -69 7 08/07/2025 10:30 AM
48515 15.5 3.93 0 84 43 86 5.10 -70 7 08/07/2025 10:15 AM
48514 15.5 3.97 0 83 43 87 5.10 -70 7 08/07/2025 10:00 AM
48513 15.5 4.11 0 81 43 86 5.10 -69 8 08/07/2025 09:45 AM
48512 15.5 3.93 0 80 43 81 5.10 -70 8 08/07/2025 09:30 AM
48511 15.5 3.93 0 79 43 85 5.10 -70 8 08/07/2025 09:15 AM
48510 15.5 3.93 0 77 43 81 5.10 -69 8 08/07/2025 09:00 AM
48509 15.5 3.92 0 76 43 81 5.10 -69 8 08/07/2025 08:45 AM
48508 15.5 3.92 0 74 43 78 5.10 -70 8 08/07/2025 08:30 AM